Location: Asheville, NC
(35.6000°N, 82.5500°W)
Time: 08:28:21
(UTC-04:00)

Hubble Space Telescope - Pass Details

Date: 09 October 2017
Orbit: 537 x 541 km, 28.5° (Epoch: 19 October)

Event Time Altitude Azimuth Distance (km) Brightness Sun altitude
Exits shadow 06:53:05 - 243° (WSW) 1,945 3.1 -8.7°
Reaches altitude 10° 06:53:43 10° 236° (WSW) 1,785 2.9 -8.6°
Maximum altitude 06:56:15 16° 198° (SSW) 1,447 2.8 -8.0°
Drops below altitude 10° 06:58:48 10° 160° (SSE) 1,783 3.7 -7.5°
Sets 07:01:46 0° 138° (SE) 2,672 5.1 -6.9°
